Skip Page Navigation
NASA JPL Caltech
NASA Logo - Jet Propulsion Laboratory + View the NASA Portal
+ Center for Near-Earth Object Studies
JPL Home Earth Solar System Stars & Galaxies Technology
JPL Solar System Dynamics
BODIES ORBITS EPHEMERIDES TOOLS PHYSICAL DATA DISCOVERY FAQ SITE MAP
JPL Small-Body Database Browser
Search: [ help ]  
(2002 RN109)
Classification: TransNeptunian Object          SPK-ID: 3221149
Ephemeris | Orbit Diagram | Orbital Elements | Physical Parameters ]

[ show orbit diagram ]
Orbital Elements at Epoch 2459396.5 (2021-Jul-01.0) TDB
Reference: JPL 5 (heliocentric ecliptic J2000)
 Element Value Uncertainty (1-sigma)   Units 
e .9952670431933663 0.00016276  
a 564.6761115213013 19.45 au
q 2.672587645568171 0.00016477 au
i 58.4532378020262 0.0040437 deg
node 170.5029119132094 0.00022916 deg
peri 212.1904640807402 0.0052666 deg
M .4961531085656822 0.025634 deg
tp 2452641.726888716747
(2003-Jan-02.22688872)
0.011016 TDB
period 4901144.985449693
13418.60
2.5322e+05
693.3
d
yr
n 7.345222413716639E-5 3.795e-06 deg/d
Q 1126.679635397034 38.807 au
  Orbit Determination Parameters
   # obs. used (total)      38  
   data-arc span      80 days  
   first obs. used      2002-08-16  
   last obs. used      2002-11-04  
   planetary ephem.      DE441  
   SB-pert. ephem.      SB441-N16  
   condition code      4  
   norm. resid. RMS      .53714  
   source      ORB  
   producer      Otto Matic  
   solution date      2021-Apr-14 21:30:29  

Additional Information
 Earth MOID = 1.76546 au 
 Jupiter MOID = 2.02039 au 
 T_jup = 1.069 
[ show covariance matrix ]

Ephemeris | Orbit Diagram | Orbital Elements | Physical Parameters ]

Physical Parameter Table
Parameter Symbol Value Units Sigma Reference Notes
absolute magnitude H 15.3   n/a MPO104218  
Ephemeris | Orbit Diagram | Orbital Elements | Physical Parameters ]
ABOUT SSD CREDITS/AWARDS PRIVACY/COPYRIGHT GLOSSARY LINKS
FirstGov 2021-Aug-05 21:32 UT
(server date/time)  
NASA Home Page
Site Manager:   Ryan S. Park
Webmaster  Alan B. Chamberlin